Location: Unspecified
(0.0000°N, 0.0000°E)
Time: 18:54:48
(UTC+00:00)

Vanguard 3 - Pass Details

Date: 25 September 2023
Orbit: 507 x 3241 km, 33.3° (Epoch: 29 November)

Event Time Altitude Azimuth Distance (km) Brightness Sun altitude
Rises 17:03:01 0° 248° (WSW) 7,096 13.4 12.2°
Reaches altitude 10° 17:08:30 10° 254° (WSW) 5,872 13.5 10.8°
Maximum altitude 17:24:13 44° 319° (NW) 2,855 10.5 6.9°
Drops below altitude 10° 17:34:02 10° 29° (NNE) 3,725 10.3 4.4°
Sets 17:36:43 0° 37° (NE) 4,387 10.5 3.7°
